[[{"header":{"parameterUnit":"m.s-1","parameterCategory":1,"la1":30.2991,"la2":30.254,"lo1":-89.0895,"lo2":-89.0444,"dy":0.0017,"dx":0.0017,"nx":28,"ny":28,"refTime":"2023-11-11T03:00:00:Z","depth":0,"parameterNumber":2,"parameterNumberName":"U-component_of_WINDS"},"data":[0,0,0,0,0,0,0,0,0,0,0,0,0,0,0,0,0,0,0,0,0,0,0,0,0,0,0,0,0,0,0,0,0,0,0,0,0,0,0,0,0,0,0,0,0,0,0,0,0,0,0,0,0,0,0,0,0,0,-1.0989,-1.0989,0,-1.103,-1.1031,-1.1031,-1.1006,-1.1005,-1.1004,-1.1003,-1.1047,-1.1049,-1.1051,0,0,0,0,0,0,0,0,0,0,0,0,0,-1.089,-1.0892,-1.0989,-1.0989,-1.099,-1.103,-1.1031,-1.1031,-1.1006,-1.1005,-1.1003,-1.1002,-1.1046,-1.1049,-1.1052,0,0,0,0,0,0,0,0,0,0,0,0,0,-1.0932,-1.0892,-1.0989,-1.0982,-1.0982,-1.103,-1.1031,-1.1032,-1.1007,-1.1005,-1.1003,-1.1001,-1.1045,-1.1048,-1.1052,-1.1109,0,0,-1.1062,-1.1064,0,0,0,0,0,0,0,0,-1.093,-1.0936,-1.0983,-1.0983,-1.0983,-1.1011,-1.1012,-1.1058,-1.1007,-1.0997,-1.1003,-1.1,-1.1037,-1.1041,-1.1052,-1.1111,-1.1113,-1.1063,-1.1065,-1.1066,-1.1067,0,0,0,0,0,0,0,-1.0927,-1.0934,-1.1005,-1.0983,-1.0983,-1.0978,-1.0982,-1.1021,-1.1027,-1.0998,-1.0996,-1.1001,-1.1036,-1.1049,-1.1053,-1.1114,-1.1063,-1.1066,-1.1068,-1.1069,-1.1223,-1.1225,0,0,0,0,0,0,-1.0924,-1.0932,-1.1004,-1.1007,-1.0951,-1.0981,-1.0985,-1.1004,-1.1026,-1.1028,-1.1003,-1.1,-1.1044,-1.1049,-1.1055,-1.1125,-1.1066,-1.107,-1.1071,-1.1221,-1.1224,-1.1226,0,0,0,0,0,0,-1.0922,-1.0931,-1.1002,-1.0969,-1.0977,-1.0985,-1.1005,-1.1006,-1.1019,-1.103,-1.1031,-1.1015,-1.1043,-1.105,-1.1096,-1.1126,-1.1071,-1.1074,-1.1219,-1.1222,-1.1225,-1.1265,0,0,0,0,0,0,-1.0919,-1.093,-1.0952,-1.0969,-1.0979,-1.1043,-1.1007,-1.1008,-1.1024,-1.1021,-1.1041,-1.1043,-1.1042,-1.1091,-1.11,-1.113,-1.1077,-1.1216,-1.122,-1.1224,-1.1261,-1.1269,-1.1276,0,0,0,0,0,-1.0916,-1.0962,-1.0953,-1.0962,-1.1006,-1.1045,-1.105,-1.1048,-1.1027,-1.1049,-1.1056,-1.1042,-1.1121,-1.1096,-1.1105,-1.1137,-1.1215,-1.1219,-1.1224,-1.1258,-1.1268,-1.1276,0,0,0,0,0,0,-1.0948,-1.0964,-1.0955,-1.1007,-1.1025,-1.104,-1.1068,-1.1058,-1.1082,-1.1078,-1.1074,-1.1079,-1.1128,-1.1136,-1.1109,-1.1195,-1.1165,-1.1171,-1.1188,-1.1197,-1.1204,-1.1202,-1.108,0,0,0,0,0,-1.0961,-1.0991,-1.1003,-1.1048,-1.1057,-1.1061,-1.1078,-1.1074,-1.1092,-1.11,-1.111,-1.1129,-1.1158,-1.1177,-1.1204,-1.1261,-1.1267,-1.1288,-1.1295,-1.1301,-1.1308,-1.1341,-1.1351,-1.1241,-1.1241,-1.1241,0,0,-1.0989,-1.1001,-1.102,-1.1055,-1.1068,-1.11,-1.1068,-1.1102,-1.1126,-1.1105,-1.115,-1.1158,-1.1179,-1.1231,-1.1255,-1.124,-1.1339,-1.1307,-1.1312,-1.1315,-1.1346,-1.1357,-1.1366,-1.1244,-1.1244,-1.1243,0,0,-1.1057,-1.1068,-1.1108,-1.1121,-1.1141,-1.1144,-1.1153,-1.117,-1.1175,-1.1219,-1.1205,-1.1233,-1.1282,-1.1298,-1.1313,-1.1385,-1.1374,-1.1394,-1.1434,-1.1465,-1.1474,-1.1482,-1.151,-1.152,-1.14,-1.14,-1.14,0,-1.1089,-1.1136,-1.113,-1.1165,-1.1182,-1.1163,-1.1204,-1.1218,-1.1246,-1.1258,-1.1241,-1.1303,-1.1315,-1.1372,-1.139,-1.1401,-1.1413,-1.1393,-1.1473,-1.1481,-1.1488,-1.1515,-1.1525,-1.1402,-1.1402,-1.1402,-1.1402,0,-1.1176,-1.1208,-1.1237,-1.1265,-1.1284,-1.1322,-1.1323,-1.1343,-1.1337,-1.1341,-1.1387,-1.1401,-1.1432,-1.1444,-1.1439,-1.15,-1.1491,-1.1473,-1.1444,-1.1501,-1.1527,-1.1537,-1.1406,-1.1405,-1.1404,-1.1404,0,0,-1.1267,-1.129,-1.1301,-1.1314,-1.1334,-1.136,-1.1397,-1.1426,-1.1444,-1.1463,-1.1496,-1.1538,-1.1522,-1.1538,-1.1534,-1.1562,-1.1621,-1.1541,-1.1541,-1.1558,-1.1692,-1.1708,-1.1719,-1.1612,-1.1614,-1.1616,-1.1691,0,-1.1338,-1.1403,-1.1398,-1.146,-1.1491,-1.1473,-1.1506,-1.1522,-1.1527,-1.1554,-1.1559,-1.159,-1.1565,-1.1575,-1.1601,-1.1608,-1.1648,-1.1602,-1.1644,-1.1646,-1.1643,-1.1732,-1.1749,-1.182,-1.1701,-1.1702,-1.1704,0,-1.143,-1.1452,-1.1517,-1.1534,-1.1546,-1.1576,-1.1603,-1.1628,-1.1646,-1.1647,-1.1665,-1.1657,-1.1695,-1.1662,-1.1716,-1.1685,-1.1702,-1.1708,-1.171,-1.1717,-1.1681,-1.1744,-1.1842,-1.1854,-1.1719,-1.1718,-1.1716,0,-1.1493,-1.154,-1.1585,-1.1596,-1.1615,-1.1637,-1.1646,-1.1662,-1.168,-1.1703,-1.1715,-1.1742,-1.1758,-1.1779,-1.1779,-1.1754,-1.1834,-1.1801,-1.1838,-1.1839,-1.1859,-1.1858,-1.1964,-1.1864,-1.1864,-1.1864,-1.1864,0,-1.1575,-1.1616,-1.1614,-1.1642,-1.1688,-1.1682,-1.1727,-1.1734,-1.1749,-1.1778,-1.1764,-1.1792,-1.1788,-1.1817,-1.1816,-1.1862,-1.1868,-1.1872,-1.1872,-1.1875,-1.1875,-1.1888,-1.1885,-1.1867,-1.1866,-1.1865,-1.1865,0,-1.1655,-1.1655,-1.1704,-1.1718,-1.1722,-1.1756,-1.1768,-1.1795,-1.1797,-1.1835,-1.1844,-1.1848,-1.1881,-1.1882,-1.1919,-1.1919,-1.1976,-1.1969,-1.197,-1.197,-1.2009,-1.2006,-1.2129,-1.2146,-1.2033,-1.2034,-1.2035,0,-1.1709,-1.174,-1.1757,-1.1776,-1.1786,-1.1816,-1.1835,-1.1829,-1.1849,-1.1872,-1.1897,-1.1928,-1.1953,-1.2007,-1.2014,-1.2043,-1.2038,-1.2079,-1.2043,-1.2045,-1.2042,-1.2042,-1.2046,-1.2087,-1.2089,-1.209,-1.209,0,-1.1805,-1.1803,-1.183,-1.1856,-1.1878,-1.1899,-1.1918,-1.1934,-1.1931,-1.1954,-1.1987,-1.2007,-1.2045,-1.2077,-1.2105,-1.2115,-1.2104,-1.2101,-1.2112,-1.2118,-1.2118,-1.2121,-1.1993,-1.2099,-1.2099,-1.2098,-1.2097,-1.2097,-1.1875,-1.1903,-1.192,-1.195,-1.1963,-1.1982,-1.2008,-1.2014,-1.2041,-1.2072,-1.2066,-1.2104,-1.2122,-1.2158,-1.217,-1.22,-1.2186,-1.2201,-1.2206,-1.221,-1.2216,-1.2111,-1.2205,-1.2205,-1.2205,-1.2204,-1.2204,0,-1.1973,-1.1983,-1.201,-1.2038,-1.2062,-1.2046,-1.2066,-1.2088,-1.2121,-1.2138,-1.2163,-1.2202,-1.2233,-1.2242,-1.2272,-1.2294,-1.229,-1.2303,-1.2303,-1.2306,-1.2225,-1.2215,-1.2306,-1.2306,-1.2306,-1.2306,-1.2306,-1.2306,-1.2027,-1.2074,-1.2074,-1.2127,-1.2136,-1.2173,-1.2186,-1.2203,-1.2217,-1.2261,-1.2286,-1.2291,-1.2305,-1.2336,-1.2364,-1.2366,-1.2379,-1.2395,-1.2395,-1.2321,-1.2311,-1.2301,-1.2291,-1.2397,-1.2397,-1.2473,-1.2474,-1.2475]},{"header":{"parameterUnit":"m.s-1","parameterCategory":1,"la1":30.2991,"la2":30.254,"lo1":-89.0895,"lo2":-89.0444,"dy":0.0017,"dx":0.0017,"nx":28,"ny":28,"refTime":"2023-11-11T03:00:00:Z","depth":0,"parameterNumber":3,"parameterNumberName":"V-component_of_WINDS"},"data":[0,0,0,0,0,0,0,0,0,0,0,0,0,0,0,0,0,0,0,0,0,0,0,0,0,0,0,0,0,0,0,0,0,0,0,0,0,0,0,0,0,0,0,0,0,0,0,0,0,0,0,0,0,0,0,0,0,0,-3.6709,-3.6709,0,-3.6727,-3.6727,-3.6727,-3.6708,-3.6707,-3.6706,-3.6706,-3.6721,-3.6722,-3.6723,0,0,0,0,0,0,0,0,0,0,0,0,0,-3.6657,-3.6658,-3.6709,-3.6709,-3.671,-3.6727,-3.6727,-3.6727,-3.6708,-3.6707,-3.6706,-3.6705,-3.6721,-3.6722,-3.6724,0,0,0,0,0,0,0,0,0,0,0,0,0,-3.6677,-3.6658,-3.6709,-3.6702,-3.6702,-3.6727,-3.6727,-3.6727,-3.6708,-3.6707,-3.6706,-3.6705,-3.672,-3.6722,-3.6724,-3.6756,0,0,-3.6729,-3.6729,0,0,0,0,0,0,0,0,-3.6676,-3.6679,-3.6703,-3.6703,-3.6702,-3.6714,-3.6714,-3.6737,-3.6708,-3.6706,-3.6706,-3.6704,-3.672,-3.6721,-3.6727,-3.6756,-3.6757,-3.6729,-3.673,-3.6731,-3.6731,0,0,0,0,0,0,0,-3.6675,-3.6678,-3.6716,-3.6703,-3.6703,-3.6697,-3.6699,-3.6718,-3.6718,-3.6706,-3.6704,-3.6707,-3.6719,-3.6725,-3.6727,-3.6757,-3.6729,-3.673,-3.6731,-3.6732,-3.6814,-3.6815,0,0,0,0,0,0,-3.6674,-3.6677,-3.6716,-3.6717,-3.6686,-3.6699,-3.6701,-3.6711,-3.6718,-3.6718,-3.6708,-3.6706,-3.6723,-3.6725,-3.6728,-3.6766,-3.6731,-3.6732,-3.6733,-3.6813,-3.6814,-3.6816,0,0,0,0,0,0,-3.6673,-3.6678,-3.6715,-3.6697,-3.6701,-3.6701,-3.6713,-3.6712,-3.6718,-3.672,-3.6719,-3.6714,-3.6722,-3.6725,-3.6749,-3.6766,-3.6733,-3.6734,-3.6812,-3.6813,-3.6815,-3.6842,0,0,0,0,0,0,-3.6672,-3.6678,-3.669,-3.6697,-3.6702,-3.6737,-3.6714,-3.6713,-3.6722,-3.6719,-3.6726,-3.6726,-3.6722,-3.6747,-3.6751,-3.6768,-3.6736,-3.681,-3.6812,-3.6814,-3.684,-3.6844,-3.6849,0,0,0,0,0,-3.667,-3.6697,-3.6691,-3.6696,-3.6718,-3.6738,-3.674,-3.6736,-3.6723,-3.6735,-3.6736,-3.6726,-3.6763,-3.6749,-3.6754,-3.6771,-3.6809,-3.6812,-3.6814,-3.6837,-3.6843,-3.6849,0,0,0,0,0,0,-3.6691,-3.6697,-3.6691,-3.6721,-3.6729,-3.6735,-3.675,-3.6742,-3.6754,-3.6751,-3.6744,-3.6746,-3.6771,-3.6773,-3.6758,-3.6803,-3.6784,-3.6788,-3.68,-3.6806,-3.681,-3.6809,-3.6737,0,0,0,0,0,-3.6699,-3.6716,-3.672,-3.6746,-3.675,-3.675,-3.6758,-3.6754,-3.6762,-3.6765,-3.6767,-3.6775,-3.6788,-3.6797,-3.681,-3.684,-3.6841,-3.6854,-3.6859,-3.6862,-3.6865,-3.6882,-3.6888,-3.6825,-3.6825,-3.6824,0,0,-3.6716,-3.6722,-3.6732,-3.675,-3.6756,-3.6772,-3.6752,-3.6771,-3.6783,-3.6767,-3.679,-3.6792,-3.68,-3.6827,-3.6839,-3.683,-3.6883,-3.6866,-3.6869,-3.687,-3.6885,-3.6891,-3.6896,-3.6826,-3.6826,-3.6826,0,0,-3.6755,-3.6761,-3.6783,-3.679,-3.6799,-3.6799,-3.6804,-3.6811,-3.6812,-3.6835,-3.6824,-3.6838,-3.6861,-3.6867,-3.6873,-3.6915,-3.6906,-3.6919,-3.6943,-3.6959,-3.6964,-3.6968,-3.6983,-3.6989,-3.6923,-3.6923,-3.6923,0,-3.6774,-3.68,-3.6795,-3.6815,-3.6823,-3.6811,-3.6833,-3.6839,-3.6852,-3.6857,-3.6847,-3.6876,-3.6881,-3.6909,-3.692,-3.6925,-3.693,-3.6918,-3.6964,-3.6968,-3.6972,-3.6986,-3.6992,-3.6924,-3.6924,-3.6924,-3.6924,0,-3.6823,-3.6841,-3.6857,-3.6871,-3.6881,-3.6902,-3.69,-3.691,-3.6906,-3.6906,-3.6929,-3.6934,-3.6948,-3.6954,-3.6949,-3.6982,-3.6976,-3.6965,-3.6946,-3.698,-3.6993,-3.6998,-3.6927,-3.6926,-3.6926,-3.6925,0,0,-3.6875,-3.6887,-3.6893,-3.6899,-3.6909,-3.6922,-3.6942,-3.6956,-3.6965,-3.6974,-3.6991,-3.7011,-3.7001,-3.7008,-3.7003,-3.7017,-3.705,-3.7004,-3.7004,-3.7013,-3.7087,-3.7095,-3.7102,-3.7044,-3.7045,-3.7046,-3.7086,0,-3.6914,-3.695,-3.6947,-3.698,-3.6997,-3.6985,-3.7003,-3.701,-3.7011,-3.7024,-3.7025,-3.704,-3.7025,-3.7029,-3.7043,-3.7044,-3.7065,-3.7041,-3.7059,-3.7059,-3.7057,-3.7108,-3.7117,-3.7155,-3.7091,-3.7092,-3.7093,0,-3.6965,-3.6977,-3.7013,-3.702,-3.7027,-3.7043,-3.7055,-3.7068,-3.7076,-3.7076,-3.7084,-3.7078,-3.7097,-3.7078,-3.7104,-3.7088,-3.7095,-3.7097,-3.7098,-3.7099,-3.7078,-3.7111,-3.7167,-3.7172,-3.7101,-3.71,-3.71,0,-3.7,-3.7025,-3.7049,-3.7055,-3.7064,-3.7076,-3.708,-3.7087,-3.7096,-3.7107,-3.7112,-3.7125,-3.7132,-3.7141,-3.7138,-3.7125,-3.7165,-3.7146,-3.7165,-3.7165,-3.7174,-3.7173,-3.7231,-3.7179,-3.7179,-3.7179,-3.7178,0,-3.7044,-3.7066,-3.7065,-3.708,-3.7104,-3.71,-3.7124,-3.7127,-3.7133,-3.7148,-3.7139,-3.7153,-3.7148,-3.7161,-3.7159,-3.7181,-3.7184,-3.7184,-3.7183,-3.7185,-3.7185,-3.7189,-3.7186,-3.718,-3.718,-3.7179,-3.7179,0,-3.7086,-3.7087,-3.7113,-3.712,-3.7122,-3.714,-3.7146,-3.716,-3.716,-3.7179,-3.7183,-3.7184,-3.7199,-3.7197,-3.7214,-3.7212,-3.724,-3.7235,-3.7237,-3.7236,-3.7255,-3.7254,-3.7318,-3.7326,-3.7269,-3.7269,-3.727,0,-3.7114,-3.7131,-3.7141,-3.7151,-3.7156,-3.7172,-3.7181,-3.7178,-3.7188,-3.7198,-3.7211,-3.7226,-3.7237,-3.7262,-3.7264,-3.7277,-3.7272,-3.7294,-3.7274,-3.7276,-3.7273,-3.7272,-3.7273,-3.7298,-3.7299,-3.7299,-3.73,0,-3.7164,-3.7164,-3.7178,-3.7192,-3.7204,-3.7215,-3.7225,-3.7233,-3.723,-3.7242,-3.7258,-3.7267,-3.7285,-3.73,-3.7312,-3.7315,-3.7307,-3.7306,-3.7311,-3.7313,-3.7313,-3.7313,-3.7248,-3.7305,-3.7304,-3.7304,-3.7303,-3.7303,-3.72,-3.7215,-3.7224,-3.724,-3.7248,-3.7257,-3.7271,-3.7273,-3.7287,-3.7302,-3.7299,-3.7317,-3.7325,-3.734,-3.7345,-3.7359,-3.7351,-3.7358,-3.736,-3.7362,-3.7364,-3.7312,-3.7361,-3.7361,-3.7361,-3.7361,-3.7361,0,-3.725,-3.7255,-3.727,-3.7285,-3.7298,-3.729,-3.73,-3.7311,-3.7328,-3.7336,-3.7348,-3.7366,-3.7381,-3.7384,-3.7397,-3.7407,-3.7404,-3.7411,-3.741,-3.7411,-3.7371,-3.7365,-3.7414,-3.7414,-3.7414,-3.7414,-3.7414,-3.7414,-3.7277,-3.7301,-3.7302,-3.733,-3.7335,-3.7354,-3.736,-3.7369,-3.7375,-3.7397,-3.7409,-3.7411,-3.7417,-3.7431,-3.7444,-3.7444,-3.7449,-3.7458,-3.7457,-3.7419,-3.7414,-3.7409,-3.7403,-3.7459,-3.7459,-3.7496,-3.7496,-3.7497]}]]